This is the latest recevied weather packets stored in our database for station/object WX2NJ-13. If no packets are shown the sender has not sent any weather packets the latest 10 day(s).
| Time | Temp. | Humidity | Pressure | Rain* | Wind** | Luminosity | Snow |
|---|---|---|---|---|---|---|---|
| 1778085189 | 20° C | 69% | 1010.7 hPa | 0 mm | 1.34 m/s, 170° | - | - |
| 1778084890 | 20° C | 69% | 1010.8 hPa | 0 mm | 1.34 m/s, 165° | - | - |
| 1778084588 | 20° C | 69% | 1010.8 hPa | 0 mm | 0.89 m/s, 181° | - | - |
| 1778084290 | 20° C | 69% | 1010.8 hPa | 0 mm | 1.34 m/s, 143° | - | - |
| 1778083991 | 20° C | 68% | 1010.8 hPa | 0 mm | 1.34 m/s, 170° | - | - |
| 1778083690 | 20° C | 68% | 1010.9 hPa | 0 mm | 1.34 m/s, 181° | - | - |
| 1778083391 | 20° C | 68% | 1010.9 hPa | 0 mm | 1.34 m/s, 59° | - | - |
| 1778083092 | 20° C | 68% | 1010.8 hPa | 0 mm | 1.34 m/s, 201° | - | - |
| 1778082791 | 20° C | 68% | 1010.9 hPa | 0 mm | 0.89 m/s, 186° | - | - |
| 1778082492 | 20° C | 67% | 1010.8 hPa | 0 mm | 1.34 m/s, 186° | - | - |
| 1778082193 | 20° C | 67% | 1010.9 hPa | 0 mm | 0.89 m/s, 125° | - | - |
| 1778081892 | 20° C | 67% | 1010.9 hPa | 0 mm | 1.79 m/s, 167° | - | - |
| 1778081593 | 20° C | 67% | 1010.9 hPa | 0 mm | 1.34 m/s, 181° | - | - |
| 1778081294 | 20° C | 67% | 1010.9 hPa | 0 mm | 1.79 m/s, 191° | - | - |
| 1778080993 | 20° C | 67% | 1011 hPa | 0 mm | 1.34 m/s, 170° | - | - |
| 1778080694 | 20° C | 66% | 1011 hPa | 0 mm | 1.34 m/s, 194° | - | - |
| 1778080395 | 20° C | 66% | 1011 hPa | 0 mm | 0.89 m/s, 162° | - | - |
| 1778080094 | 20° C | 65% | 1011.1 hPa | 0 mm | 1.79 m/s, 159° | - | - |
| 1778079795 | 20.56° C | 65% | 1011.1 hPa | 0 mm | 0.89 m/s, 160° | - | - |
| 1778079497 | 20.56° C | 64% | 1011.1 hPa | 0 mm | 0.89 m/s, 183° | - | - |
| 1778079195 | 20.56° C | 64% | 1011.1 hPa | 0 mm | 1.34 m/s, 188° | - | - |
| 1778078896 | 21.11° C | 64% | 1011.2 hPa | 0 mm | 1.34 m/s, 166° | - | - |
| 1778078598 | 21.11° C | 64% | 1011 hPa | 0 mm | 2.24 m/s, 169° | - | - |
| 1778078296 | 21.11° C | 64% | 1011.1 hPa | 0 mm | 1.34 m/s, 124° | - | - |
| 1778077997 | 21.11° C | 64% | 1011.2 hPa | 0 mm | 1.34 m/s, 180° | - | - |
* Rain latest hour (hover to see other rain measurements)
** Current wind speed in m/s (hover to see current wind gust speed)